FLOCK 1E-2

Last updated on March 5, 2016, 4:27 p.m. UTC

1 40722U 98067GE  16065.55779821  .47056096  12829-4  35318-3 0  9993
2 40722  51.6158 187.3602 0006346 336.4790  29.3138 16.52362311 37030

Satellite is not in orbit.